Location: Mabank
(32.3664°N, 96.1006°W)
Time: 03:52:07
(UTC-06:00)

Hubble Space Telescope - Visible Passes

Search period start: 18 January 2018 00:00
Search period end: 28 January 2018 00:00
Orbit: 537 x 541 km, 28.5° (Epoch: 17 January)

Date Brightness Start Highest point End Pass type
(mag) Time Alt. Az. Time Alt. Az. Time Alt. Az.
20 Jan 3.3 20:02:06 10° SSW 20:03:02 14° SSW 20:03:02 14° SSW visible
21 Jan 2.8 19:51:30 10° SW 19:53:29 20° SSW 19:53:29 20° SSW visible
22 Jan 2.2 19:40:59 10° SW 19:43:55 27° S 19:43:55 27° S visible
23 Jan 1.8 19:30:32 10° SW 19:34:15 33° SSE 19:34:20 33° SSE visible
24 Jan 1.6 19:20:07 10° WSW 19:23:57 38° S 19:24:44 34° SE visible
25 Jan 1.5 19:09:45 10° WSW 19:13:40 42° S 19:15:07 30° SE visible
26 Jan 1.4 18:59:26 10° WSW 19:03:22 45° S 19:05:31 23° ESE visible
26 Jan 3.9 20:40:26 10° W 20:40:53 13° WSW 20:40:53 13° WSW visible
27 Jan 1.4 18:49:07 10° WSW 18:53:05 48° S 18:55:55 18° ESE visible
27 Jan 3.5 20:30:11 10° W 20:31:17 17° WSW 20:31:17 17° WSW visible
